Previsão horária em Celmerostwo

Hoje, 25 Julho, Domingo

Tempo Temperatura Precipitação Vento Pressão Humidade
00:00 +17°C° 0 mm 2 m/s 747 mmHg 78%
01:00 +17°C° 0 mm 2 m/s 747 mmHg 77%
02:00 +17°C° 0 mm 2 m/s 747 mmHg 76%
03:00 +17°C° 0 mm 2 m/s 747 mmHg 76%
04:00 +18°C° 0 mm 2 m/s 747 mmHg 75%
05:00 +18°C° 0 mm 2 m/s 747 mmHg 73%
06:00 +19°C° 0 mm 3 m/s 747 mmHg 70%
07:00 +20°C° 0 mm 3 m/s 747 mmHg 67%
08:00 +21°C° 0 mm 3 m/s 747 mmHg 63%
09:00 +23°C° 0 mm 4 m/s 747 mmHg 59%
10:00 +25°C° 0 mm 4 m/s 747 mmHg 54%
11:00 +27°C° 0 mm 5 m/s 746 mmHg 50%
12:00 +28°C° 0 mm 5 m/s 746 mmHg 46%
13:00 +29°C° 0 mm 6 m/s 746 mmHg 41%
14:00 +29°C° 0 mm 5 m/s 746 mmHg 44%
15:00 +28°C° 0 mm 4 m/s 746 mmHg 46%
16:00 +28°C° 0 mm 4 m/s 746 mmHg 48%
17:00 +27°C° 0 mm 3 m/s 746 mmHg 53%
18:00 +26°C° 0 mm 3 m/s 746 mmHg 57%
19:00 +25°C° 0 mm 3 m/s 746 mmHg 61%
20:00 +24°C° 0 mm 3 m/s 746 mmHg 65%
21:00 +23°C° 0 mm 2 m/s 746 mmHg 70%
22:00 +20°C° 0 mm 2 m/s 746 mmHg 74%
23:00 +20°C° 0 mm 2 m/s 746 mmHg 75%

Amanhã, 26 Julho, Segunda-feira

Tempo Temperatura Precipitação Vento Pressão Humidade
00:00 +20°C° 0 mm 2 m/s 746 mmHg 75%
01:00 +19°C° 0 mm 2 m/s 746 mmHg 75%
02:00 +19°C° 0.2 mm 2 m/s 746 mmHg 76%
03:00 +19°C° 0.2 mm 2 m/s 746 mmHg 78%
04:00 +19°C° 0.2 mm 2 m/s 746 mmHg 80%
05:00 +19°C° 0 mm 2 m/s 746 mmHg 77%
06:00 +20°C° 0 mm 3 m/s 746 mmHg 75%
07:00 +21°C° 0 mm 3 m/s 746 mmHg 72%
08:00 +22°C° 0 mm 3 m/s 746 mmHg 68%
09:00 +24°C° 0 mm 3 m/s 746 mmHg 64%
10:00 +25°C° 0 mm 4 m/s 746 mmHg 59%
11:00 +26°C° 0 mm 4 m/s 746 mmHg 56%
12:00 +27°C° 0 mm 5 m/s 746 mmHg 52%
13:00 +28°C° 0 mm 6 m/s 745 mmHg 49%
14:00 +28°C° 0 mm 5 m/s 745 mmHg 51%
15:00 +28°C° 0 mm 4 m/s 745 mmHg 53%
16:00 +28°C° 0 mm 3 m/s 744 mmHg 55%
17:00 +26°C° 0.5 mm 3 m/s 744 mmHg 63%
18:00 +25°C° 0.5 mm 3 m/s 744 mmHg 71%
19:00 +24°C° 0.5 mm 3 m/s 744 mmHg 78%
20:00 +22°C° 0.5 mm 3 m/s 744 mmHg 83%
21:00 +20°C° 0.5 mm 3 m/s 744 mmHg 87%
22:00 +19°C° 0.5 mm 3 m/s 744 mmHg 91%
23:00 +19°C° 0.3 mm 2 m/s 744 mmHg 92%

Depois de amanhã, 27 Julho, Terça-feira

Tempo Temperatura Precipitação Vento Pressão Humidade
00:00 +19°C° 0.3 mm 2 m/s 744 mmHg 93%
01:00 +19°C° 0.3 mm 2 m/s 744 mmHg 94%
02:00 +19°C° 0.2 mm 2 m/s 744 mmHg 94%
03:00 +20°C° 0.2 mm 1 m/s 744 mmHg 94%
04:00 +20°C° 0.2 mm 1 m/s 744 mmHg 95%
05:00 +21°C° 0.1 mm 1 m/s 744 mmHg 91%
06:00 +21°C° 0.1 mm 1 m/s 744 mmHg 88%
07:00 +22°C° 0.1 mm 1 m/s 744 mmHg 84%
08:00 +24°C° 0 mm 1 m/s 744 mmHg 75%
09:00 +26°C° 0 mm 2 m/s 744 mmHg 67%
10:00 +28°C° 0 mm 2 m/s 744 mmHg 58%
11:00 +29°C° 0.1 mm 3 m/s 744 mmHg 53%
12:00 +30°C° 0.1 mm 3 m/s 744 mmHg 49%
13:00 +30°C° 0.1 mm 4 m/s 744 mmHg 44%
14:00 +29°C° 0.1 mm 3 m/s 744 mmHg 50%
15:00 +28°C° 0.1 mm 3 m/s 745 mmHg 55%
16:00 +26°C° 0.1 mm 3 m/s 745 mmHg 61%
17:00 +26°C° 0.1 mm 2 m/s 745 mmHg 65%
18:00 +25°C° 0.1 mm 2 m/s 744 mmHg 69%
19:00 +24°C° 0.1 mm 2 m/s 744 mmHg 74%
20:00 +23°C° 0.2 mm 1 m/s 745 mmHg 78%
21:00 +22°C° 0.2 mm 1 m/s 745 mmHg 83%
22:00 +21°C° 0.2 mm 1 m/s 745 mmHg 87%
23:00 +21°C° 0 mm 1 m/s 745 mmHg 88%

28 Julho, Quarta-feira

Tempo Temperatura Precipitação Vento Pressão Humidade
00:00 +20°C° 0 mm 1 m/s 745 mmHg 88%
01:00 +20°C° 0 mm 1 m/s 744 mmHg 88%
02:00 +20°C° 0.1 mm 1 m/s 744 mmHg 90%
03:00 +20°C° 0.1 mm 1 m/s 744 mmHg 91%
04:00 +19°C° 0.1 mm 1 m/s 744 mmHg 92%
05:00 +19°C° 0.1 mm 2 m/s 744 mmHg 89%
06:00 +20°C° 0.1 mm 2 m/s 744 mmHg 85%
07:00 +22°C° 0.1 mm 3 m/s 744 mmHg 81%
08:00 +22°C° 0.4 mm 3 m/s 744 mmHg 79%
09:00 +22°C° 0.4 mm 3 m/s 744 mmHg 77%
10:00 +22°C° 0.4 mm 4 m/s 744 mmHg 76%
11:00 +22°C° 0.1 mm 4 m/s 744 mmHg 73%
12:00 +23°C° 0.1 mm 4 m/s 744 mmHg 71%
13:00 +23°C° 0.1 mm 5 m/s 744 mmHg 69%
14:00 +23°C° 0.2 mm 4 m/s 744 mmHg 66%
15:00 +25°C° 0.2 mm 4 m/s 744 mmHg 62%
16:00 +25°C° 0.2 mm 4 m/s 744 mmHg 59%
17:00 +24°C° 0.1 mm 3 m/s 744 mmHg 63%
18:00 +22°C° 0.1 mm 3 m/s 744 mmHg 67%
19:00 +21°C° 0.1 mm 2 m/s 744 mmHg 71%
20:00 +20°C° 0 mm 2 m/s 744 mmHg 75%
21:00 +20°C° 0 mm 1 m/s 745 mmHg 78%
22:00 +19°C° 0 mm 1 m/s 745 mmHg 82%
23:00 +19°C° 0.1 mm 1 m/s 745 mmHg 83%

29 Julho, Quinta-feira

Tempo Temperatura Precipitação Vento Pressão Humidade
00:00 +18°C° 0.1 mm 1 m/s 745 mmHg 84%
01:00 +17°C° 0.1 mm 2 m/s 745 mmHg 85%
02:00 +17°C° 0 mm 2 m/s 745 mmHg 87%
03:00 +16°C° 0 mm 2 m/s 745 mmHg 89%
04:00 +16°C° 0 mm 2 m/s 745 mmHg 90%
05:00 +17°C° 0 mm 3 m/s 745 mmHg 84%
06:00 +19°C° 0 mm 3 m/s 745 mmHg 78%
07:00 +20°C° 0 mm 4 m/s 745 mmHg 72%
08:00 +21°C° 0 mm 4 m/s 745 mmHg 63%
09:00 +23°C° 0 mm 5 m/s 745 mmHg 54%
10:00 +25°C° 0 mm 5 m/s 746 mmHg 45%
11:00 +26°C° 0 mm 5 m/s 745 mmHg 42%
12:00 +27°C° 0 mm 5 m/s 745 mmHg 38%
13:00 +27°C° 0 mm 5 m/s 745 mmHg 34%
14:00 +27°C° 0 mm 5 m/s 745 mmHg 34%
15:00 +27°C° 0 mm 4 m/s 745 mmHg 34%
16:00 +28°C° 0 mm 4 m/s 745 mmHg 34%
17:00 +26°C° 0 mm 3 m/s 745 mmHg 42%
18:00 +24°C° 0 mm 3 m/s 745 mmHg 51%
19:00 +21°C° 0 mm 2 m/s 745 mmHg 59%
20:00 +20°C° 0 mm 2 m/s 745 mmHg 65%
21:00 +19°C° 0 mm 2 m/s 745 mmHg 70%
22:00 +17°C° 0 mm 2 m/s 745 mmHg 76%
23:00 +17°C° 0 mm 2 m/s 744 mmHg 78%

30 Julho, Sexta-feira

Tempo Temperatura Precipitação Vento Pressão Humidade
00:00 +17°C° 0 mm 2 m/s 744 mmHg 80%
01:00 +16°C° 0 mm 1 m/s 744 mmHg 83%
02:00 +16°C° 0 mm 2 m/s 744 mmHg 82%
03:00 +16°C° 0 mm 2 m/s 744 mmHg 82%
04:00 +16°C° 0 mm 2 m/s 743 mmHg 82%
05:00 +18°C° 0 mm 2 m/s 743 mmHg 75%
06:00 +20°C° 0 mm 2 m/s 743 mmHg 68%
07:00 +22°C° 0 mm 3 m/s 743 mmHg 61%
08:00 +24°C° 0 mm 3 m/s 743 mmHg 58%
09:00 +26°C° 0 mm 4 m/s 743 mmHg 55%
10:00 +27°C° 0 mm 5 m/s 742 mmHg 52%
11:00 +27°C° 0.1 mm 5 m/s 742 mmHg 51%
12:00 +28°C° 0.1 mm 5 m/s 742 mmHg 51%
13:00 +28°C° 0.1 mm 6 m/s 742 mmHg 50%
14:00 +27°C° 0 mm 6 m/s 742 mmHg 52%
15:00 +25°C° 0 mm 5 m/s 743 mmHg 55%
16:00 +23°C° 0 mm 5 m/s 743 mmHg 57%
17:00 +22°C° 0 mm 4 m/s 743 mmHg 59%
18:00 +22°C° 0 mm 3 m/s 743 mmHg 60%
19:00 +21°C° 0 mm 2 m/s 743 mmHg 61%
20:00 +20°C° 0 mm 2 m/s 743 mmHg 64%
21:00 +19°C° 0 mm 1 m/s 744 mmHg 68%
22:00 +18°C° 0 mm 1 m/s 744 mmHg 71%
23:00 +18°C° 0 mm 1 m/s 744 mmHg 72%
Mostrar mais

Necessitamos do seu Consentimento

A Meteoprog e os seus Fornecedores de Serviços podem armazenar e aceder a dados pessoais como cookies, identificadores do dispositivo ou outras tecnologias semelhantes existentes no seu dispositivo e processar estes dados para personalizar conteúdos e anúncios, assim como funcionalidades nas redes sociais e análise de tráfego.

  • Armazenar e/ou aceder a informações no seu dispositivo

    Os cookies, identificadores do dispositivo ou outras informações podem ser armazenados ou acedidos no seu dispositivo, para os fins acima indicados.

  • Anúncios e conteúdos personalizados, medição de anúncios e conteúdos, dados sobre o público-alvo e desenvolvimento de produtos

    Os anúncios e os conteúdos podem ser personalizados com base num perfil. Podem ser adicionados dados adicionais para uma maior personalização dos anúncios e dos conteúdos. A eficácia dos anúncios e dos conteúdos pode ser medida. Podem ser obtidas informações sobre o público que visualizou os anúncios e os conteúdos. Estes dados podem ser usados para desenvolver ou melhorar sistemas, softwares ou a experiência do utilizador.

Ao clicar em "Eu concordo”, permitirá o uso de cookies, identificadores do dispositivo e web beacons mencionados ou outras tecnologias semelhantes. As configurações do navegador do seu dispositivo podem ser alteradas.

Para certos fins, podem ser invocados interesses legítimos ao invés de consentimento. Pode ler mais informação sobre este assunto na nossa Política de Privacidade e Cookies.